Overview Statistics Trail Chart Weather Telemetry Raw packets
 

This is the latest recevied weather packets stored in our database for station/object EA5GTE-12. If no packets are shown the sender has not sent any weather packets the latest 10 day(s).

<< 1 2 3 4 5 6 >>
Time Temp. Humidity Pressure Rain* Wind** Luminosity Snow
1788573237 21.11° C 100% 944.6 hPa - - - -
1788572337 21.11° C 100% 944.5 hPa - - - -
1788571437 21.67° C 100% 944.5 hPa - - - -
1788570537 22.22° C 100% 944.5 hPa - - - -
1788569637 22.78° C 100% 944.5 hPa - - - -
1788568737 22.78° C 100% 944.5 hPa - - - -
1788567837 23.33° C 99% 944.4 hPa - - - -
1788566937 23.89° C 96% 944.4 hPa - - - -
1788566036 23.89° C 94% 944.5 hPa - - - -
1788565136 23.89° C 91% 944.4 hPa - - - -
1788564236 24.44° C 87% 944.5 hPa - - - -
1788563336 24.44° C 89% 944.5 hPa - - - -
1788562436 25° C 87% 944.4 hPa - - - -
1788561536 25° C 86% 944.4 hPa - - - -
1788559732 25.56° C 84% 944.2 hPa - - - -
1788558832 26.11° C 78% 944.2 hPa - - - -
1788557932 26.67° C 72% 944.2 hPa - - - -
1788557032 27.22° C 67% 944.2 hPa - - - -
1788556132 27.78° C 63% 944.2 hPa - - - -
1788555231 28.33° C 60% 944 hPa - - - -
1788554336 28.33° C 57% 943.8 hPa - - - -
1788553431 28.33° C 55% 943.7 hPa - - - -
1788552531 28.89° C 50% 943.5 hPa - - - -
1788551631 29.44° C 45% 943.4 hPa - - - -
1788550731 30° C 41% 943.1 hPa - - - -

* Rain since midnight (hover to see other rain measurements)
** Current wind speed in m/s (hover to see current wind gust speed)